Flag for Hungary Weather past 2 weeks in Győr, Hungary

Now
46 °F

Cool.


Feels Like: 45 °F
Forecast: 35 / 46 °F
Wind: 3 mph from Northwest

Location: Gyor

Current Time: Mar 4, 2015 at 2:16:23 PM

Latest Report: Mar 4, 2015 at 1:00 PM


Visibility: N/A

Pressure: 30.25 "Hg

Humidity: 60%

Dew point: 33 °F

Location of GyőrLocation

Historic Weather in Győr — Graph

°F

Győr temperature yesterday

Maximum temperature yesterday: 49 °F (at 3:00 PM)
Minimum temperature yesterday: 32 °F (at 1:00 AM)
Average temperature yesterday: 40 °F

Past Weeks' High & Low Weather Summary

 TemperatureHumidityPressure
High54 °F (Feb 21, 3:00 PM)98% (Feb 24, 8:00 AM)30.78 "Hg (Feb 24, 8:00 AM)
Low22 °F (Feb 18, 7:00 AM)33% (Mar 3, 3:00 PM)29.64 "Hg (Feb 23, 5:00 PM)
Average40 °F75%30.05 "Hg
* Reported Feb 17 1:00 PM — Mar 4 1:00 PM, Győr, Weather by CustomWeather, © 2015

Note: Actual official high and low records may vary slightly from our data, if they occured in-between our weather recording intervals... More about our weather records

Advertising

Győr weather history for previous 24 hours

 ConditionsComfort  
Time TempWeatherWind HumidityBarometerVisibility
1:00 PM
Wed, Mar 4
46 °FCool.3 mph60%30.25 "HgN/A
12:00 PM46 °FCool.5 mph59%30.24 "HgN/A
11:00 AM45 °FCool.2 mph54%30.23 "HgN/A
10:00 AM42 °FQuite cool.2 mph52%30.24 "HgN/A
9:00 AM42 °FQuite cool.3 mph49%30.21 "HgN/A
8:00 AM42 °FQuite cool.6 mph49%30.17 "HgN/A
7:00 AM42 °FQuite cool.6 mph45%30.15 "HgN/A
6:00 AM41 °FQuite cool.6 mph46%30.16 "HgN/A
5:00 AM41 °FQuite cool.6 mph45%30.17 "HgN/A
3:00 AM42 °FQuite cool.6 mph44%30.19 "HgN/A
2:00 AM39 °FChilly.5 mph51%30.21 "HgN/A
1:00 AM36 °FChilly.2 mph56%30.22 "HgN/A
12:00 AM32 °FChilly.1 mph74%30.25 "HgN/A
11:00 PM
Tue, Mar 3
33 °FChilly.1 mph72%30.26 "HgN/A
10:00 PM32 °FChilly.1 mph74%30.27 "HgN/A
9:00 PM33 °FChilly.No wind72%30.27 "HgN/A
8:00 PM35 °FChilly.1 mph65%30.26 "HgN/A
7:00 PM38 °FChilly.1 mph58%30.25 "HgN/A
6:00 PM44 °FQuite cool.1 mph45%30.23 "HgN/A
5:00 PM48 °FCool.3 mph38%30.22 "HgN/A
4:00 PM48 °FCool.6 mph35%30.22 "HgN/A
3:00 PM49 °FCool.5 mph33%30.23 "HgN/A
2:00 PM47 °FCool.6 mph38%30.22 "HgN/A
Weather by CustomWeather, © 2015

See weather overviewHow to use our weather pages